This demonstration page uses our WeatherBlox Daily Observations layout. Learn more.

Left ArrowRight Arrow

41.86663, -103.66717

Hourly Observations for September 30, 2015

Temp ( °F °C ) Dew Point ( °F °C ) Humidity (%) Winds ( mph kmh ) Pressure ( in mb ) Visibility ( mi km ) Precip ( " mm )
12:53 am 00:53 Mostly Cloudy 56 13.3 53 11.7 90 90 ESE 7 11 30.00 1016 10 16 N/A
1:24 am 01:24 Partly Cloudy 55 13 54 12 94 94 ESE 7 11 30.00 1016 10 16 N/A
1:43 am 01:43 Mostly Cloudy 56 13.3 53 11.7 90 90 ESE 9 15 30.00 1016 9 14 N/A
1:53 am 01:53 Cloudy 56 13.3 53 11.7 90 90 ESE 7 11 30.00 1016 9 14 N/A
2:53 am 02:53 Cloudy 56 13.3 54 12.2 93 93 ESE 8 13 29.97 1015 8 13 N/A
3:53 am 03:53 Cloudy 55 12.8 53 11.7 93 93 ESE 8 13 29.97 1015 7 11 N/A
4:53 am 04:53 Cloudy 55 12.8 53 11.7 93 93 E 8 13 29.98 1015 8 13 N/A
5:53 am 05:53 Cloudy 55 12.8 53 11.7 93 93 ESE 8 13 30.00 1016 8 13 N/A
6:53 am 06:53 Cloudy 56 13.3 54 12.2 93 93 ESE 7 11 30.01 1016 8 13 N/A
7:53 am 07:53 Cloudy 57 13.9 53 11.7 87 87 SE 8 13 30.04 1017 8 13 N/A
8:53 am 08:53 Cloudy 58 14.4 53 11.7 84 84 SSE 5 7 30.06 1018 9 14 N/A
9:53 am 09:53 Cloudy 58 14.4 52 11.1 81 81 S 3 6 30.07 1018 9 14 N/A
10:53 am 10:53 Cloudy 59 15 52 11.1 78 78 N N/A 30.07 1018 8 13 N/A
11:41 am 11:41 Cloudy 60 15.6 52 11.1 75 75 N N/A 30.00 1016 8 13 N/A
11:53 am 11:53 Cloudy 61 16.1 52 11.1 72 72 N N/A 30.07 1018 8 13 N/A
12:53 pm 12:53 Cloudy 62 16.7 52 11.1 70 70 N N/A 30.06 1018 8 13 N/A
1:27 pm 13:27 Partly Cloudy 62 16.7 53 11.7 73 73 N N/A 29.97 1015 7 11 N/A
1:53 pm 13:53 Mostly Sunny 65 18.3 54 12.2 68 68 SSW 3 6 30.04 1017 7 11 N/A
2:53 pm 14:53 Sunny 68 20 54 12.2 61 61 VRB 3 6 30.01 1016 8 13 N/A
3:53 pm 15:53 Sunny 69 20.6 55 12.8 61 61 E 6 9 30.00 1016 9 14 N/A
4:53 pm 16:53 Sunny 71 21.7 55 12.8 57 57 SE 9 15 29.99 1016 10 16 N/A
5:53 pm 17:53 Sunny 67 19.4 56 13.3 68 68 E 12 19 30.00 1016 10 16 N/A
6:53 pm 18:53 Clear 62 16.7 55 12.8 78 78 E 10 17 30.02 1017 10 16 N/A
7:53 pm 19:53 Clear 59 15 54 12.2 83 83 ESE 15 24 30.04 1017 10 16 N/A
8:53 pm 20:53 Clear 57 13.9 54 12.2 90 90 ESE 13 20 30.07 1018 8 13 N/A
9:53 pm 21:53 Clear with Mist and Fog 56 13.3 54 12.2 93 93 ESE 12 19 30.08 1019 6 10 N/A
10:50 pm 22:50 Partly Cloudy with Mist and Fog 55 13 54 12 94 94 ESE 13 20 30.03 1017 4 6 N/A
10:53 pm 22:53 Mostly Cloudy with Mist and Fog 55 12.8 54 12.2 96 96 ESE 14 22 30.07 1018 4 6 N/A
11:29 pm 23:29 Mostly Clear with Mist and Fog 55 12.8 53 11.7 93 93 ESE 12 19 30.03 1017 4 6 N/A
11:53 pm 23:53 Partly Cloudy with Mist and Fog 56 13.3 55 12.8 97 97 SE 12 19 30.06 1018 5 8 N/A

Powered by AerisWeather